Content
SEND FEEDBACK

Daily
Averages
Monthly
Summary
United States of America

EARTH CITY, MISSOURI


Home > North America > United States > Missouri
Elevation: 145 meters     Latitude: 38 46N     Longitude: 090 30W

WEATHER
 
SELECT A DAY
Number of Records: 203,345;   Date Range: 1/1/95 - 7/22/14
 
SHARE

PRINT THIS DATA

[ ← Previous Day ]
WEATHER ALMANAC - 28 FEBRUARY, 2013
[ Next Day → ]
[ °F ]   °C
Weather ElementAverageHighLow
Temperature0.8 °C2 °C (11:29 am)0 °C (2:51 am)
Dewpoint-2.3 °C-1.7 °C (9:51 am)-3 °C (3:51 am)
Humidity80.3 %88 % (10:51 pm)72 % (2:51 pm)
Barometer1018.3 hPa1020.7 hPa (7:51 pm)1012.9 hPa (3:51 am)
Wind Speed15 km/h22.2 km/h (5:51 am)
Wind Gust33.3 km/h (11:29 am)
Weather ElementAverage
Visibility8.9 km
Wind DirectionWNW (298.1 °)

Weather ElementTotal
Precipitation1.52 mm
Heating Degree Days17.3 (Base 18.3)
Averaged from 32 records on 28 February, 2013
WEATHER CONDITIONS BREAKOUT
WIND DIRECTION BREAKOUT
WEATHER BY HOUR - 28 FEBRUARY, 2013
[ °F ]   °C
Local TimeTemperatureDewpointHumidityBarometerVisibilityWind DirectionWind SpeedGust SpeedPrecipitationEventsConditions
2:51 AM0 °C-2.8 °C82 %1013.5 hPa12.9 kmWNW (290°)14.8 km/h0 mmSnowLight Snow
3:51 AM0 °C-3 °C80 %1012.9 hPa12.9 kmWNW (290°)18.5 km/hSnowLight Snow
4:51 AM0 °C-2.8 °C82 %1014.6 hPa11.3 kmWNW (290°)20.4 km/h0 mmOvercast
5:51 AM0 °C-2.8 °C82 %1015.2 hPa11.3 kmWNW (290°)22.2 km/h31.5 km/h0 mmSnowLight Snow
6:51 AM0.6 °C-2.8 °C78 %1015.9 hPa11.3 kmWNW (300°)16.7 km/h0 mmSnowLight Snow
7:51 AM1 °C-2 °C81 %1015.6 hPa11.3 kmWNW (290°)16.7 km/hSnowLight Snow
8:14 AM1 °C-2 °C81 %1015.9 hPa9.7 kmWNW (300°)18.5 km/h0 mmSnowLight Snow
8:51 AM0.6 °C-2.2 °C82 %1017.3 hPa9.7 kmWNW (290°)18.5 km/h31.5 km/h0 mmSnowLight Snow
9:51 AM1.1 °C-1.7 °C82 %1017.6 hPa11.3 kmWNW (300°)20.4 km/h0 mmSnowLight Snow
10:51 AM1.1 °C-2.2 °C79 %1018.3 hPa11.3 kmWNW (290°)22.2 km/h0 mmSnowLight Snow
11:29 AM2 °C-2 °C75 %1017.3 hPa11.3 kmWNW (290°)16.7 km/h33.3 km/h0 mmSnowLight Snow
11:51 AM1.7 °C-2.2 °C76 %1018.6 hPa11.3 kmWNW (290°)22.2 km/h0 mmSnowLight Snow
12:51 PM1.1 °C-2.8 °C75 %1018.6 hPa12.9 kmWNW (290°)20.4 km/h31.5 km/h0 mmSnowLight Snow
1:51 PM1.1 °C-2.8 °C75 %1018.3 hPa11.3 kmWNW (290°)16.7 km/h0 mmSnowLight Snow
2:51 PM1.7 °C-2.8 °C72 %1019 hPa12.9 kmNW (310°)14.8 km/h0 mmSnowLight Snow
3:51 PM1.7 °C-2.8 °C72 %1019.3 hPa14.5 kmWNW (300°)14.8 km/h0 mmOvercast
4:51 PM1.7 °C-2.8 °C72 %1019.6 hPa14.5 kmWNW (290°)18.5 km/hOvercast
5:51 PM1.1 °C-2.8 °C75 %1020 hPa9.7 kmNW (320°)13 km/h0 mmSnowLight Snow
6:06 PM1 °C-3 °C75 %1019 hPa6.4 kmWNW (300°)7.4 km/h0 mmSnowLight Snow
6:48 PM1 °C-2 °C81 %1019.3 hPa4.8 kmNW (320°)11.1 km/h0 mmSnowLight Snow
6:51 PM0.6 °C-1.7 °C85 %1020.3 hPa4.8 kmNW (320°)11.1 km/h0 mmSnowLight Snow
7:19 PM1 °C-2 °C81 %1019.3 hPa4.8 kmNW (310°)9.3 km/h0 mmSnowLight Snow
7:51 PM0.6 °C-1.7 °C85 %1020.7 hPa4.8 kmWNW (290°)11.1 km/h0.25 mmSnowLight Snow
8:22 PM1 °C-2 °C81 %1019.3 hPa6.4 kmWNW (300°)9.3 km/h0 mmSnowLight Snow
8:51 PM0.6 °C-1.7 °C85 %1020.3 hPa6.4 kmWNW (300°)14.8 km/h0 mmSnowLight Snow
9:26 PM1 °C-2 °C81 %1019.6 hPa6.4 kmWNW (290°)14.8 km/h0 mmSnowLight Snow
9:51 PM0.6 °C-1.7 °C85 %1020.7 hPa6.4 kmWNW (300°)9.3 km/h0 mmSnowLight Snow
10:26 PM1 °C-2 °C81 %1019.3 hPa4.8 kmWNW (300°)9.3 km/h0.25 mmSnowLight Snow
10:51 PM0 °C-1.7 °C88 %1020.3 hPa4 kmWNW (300°)9.3 km/h0.25 mmSnowLight Snow
11:31 PM0 °C-2 °C87 %1019.3 hPa4 kmWNW (290°)11.1 km/h0.25 mmSnowLight Snow
11:41 PM0 °C-2 °C87 %1019 hPa4.8 kmWNW (300°)11.1 km/h0.25 mmSnowLight Snow
11:51 PM0 °C-1.7 °C88 %1020 hPa4.8 kmNW (310°)13 km/h0.25 mmSnowLight Snow
Hourly data recorded from KSTL, located 0 kilometers away from Earth City, Missouri







STORIES FROM OUR PARTNERS